Location: D�derode
(51.8092°N, 10.1065°E)
Time: 22:36:27
(UTC+00:00)

Cosmos 1869 Rocket - Pass Details

Date: 23 April 2021
Orbit: 603 x 634 km, 82.5° (Epoch: 13 May)

Event Time Altitude Azimuth Distance (km) Brightness Sun altitude
Rises 21:49:25 0° 2° (N) 2,896 8.1 -22.6°
Reaches altitude 10° 21:52:45 10° 29° (NNE) 1,978 6.6 -22.8°
Maximum altitude 21:54:58 14° 60° (ENE) 1,741 5.9 -22.9°
Enters shadow 21:55:59 13° 75° (ENE) 1,789 5.8 -23.0°
